This is the latest recevied weather packets stored in our database for station/object OK1FET-4. If no packets are shown the sender has not sent any weather packets the latest 10 day(s).
| Time | Temp. | Humidity | Pressure | Rain* | Wind** | Luminosity | Snow |
|---|---|---|---|---|---|---|---|
| 1788582110 | 12.78° C | 100% | 1017.8 hPa | - | - | - | - |
| 1788581824 | 12.78° C | 100% | 1017.6 hPa | - | - | - | - |
| 1788581509 | 12.78° C | 100% | 1017.1 hPa | - | - | - | - |
| 1788581209 | 13.33° C | 100% | 1017.6 hPa | - | - | - | - |
| 1788580909 | 13.33° C | 100% | 1017.9 hPa | - | - | - | - |
| 1788580609 | 13.33° C | 100% | 1017.9 hPa | - | - | - | - |
| 1788580308 | 13.33° C | 100% | 1018.1 hPa | - | - | - | - |
| 1788580008 | 13.89° C | 100% | 1018.2 hPa | - | - | - | - |
| 1788579708 | 13.89° C | 96% | 1018.3 hPa | - | - | - | - |
| 1788579407 | 13.89° C | 90% | 1018.4 hPa | - | - | - | - |
| 1788579107 | 14.44° C | 87% | 1018.5 hPa | - | - | - | - |
| 1788578807 | 14.44° C | 86% | 1018.3 hPa | - | - | - | - |
| 1788578506 | 15° C | 86% | 1018.4 hPa | - | - | - | - |
| 1788578206 | 15° C | 83% | 1018.3 hPa | - | - | - | - |
| 1788577905 | 15° C | 81% | 1018 hPa | - | - | - | - |
| 1788577605 | 15° C | 79% | 1017.7 hPa | - | - | - | - |
| 1788577305 | 15° C | 79% | 1017.8 hPa | - | - | - | - |
| 1788577004 | 15° C | 80% | 1018.1 hPa | - | - | - | - |
| 1788576704 | 15.56° C | 77% | 1018.3 hPa | - | - | - | - |
| 1788576403 | 15.56° C | 78% | 1018.2 hPa | - | - | - | - |
| 1788576135 | 15.56° C | 79% | 1018.2 hPa | - | - | - | - |
| 1788575802 | 16.11° C | 77% | 1017.8 hPa | - | - | - | - |
| 1788575502 | 15.56° C | 76% | 1017.1 hPa | - | - | - | - |
| 1788575201 | 15.56° C | 76% | 1017.2 hPa | - | - | - | - |
| 1788574901 | 15.56° C | 76% | 1017 hPa | - | - | - | - |
* Rain since midnight (hover to see other rain measurements)
** Current wind speed in m/s (hover to see current wind gust speed)